Weather in Sosnovka

Russia / Tyva Republic     51°08′23″N   94°31′15″E
temp.,
°C
wind,
m/s
gust,
m/s
humid.,
%
clouds,
%
prec.,
mm/h
press.,
hPa
HPBL,
m
1 march, mon
mon101:00−27ene119333 0.0 104020
04:00−26nne1199100 0.0 103720
07:00−25nne1199100 0.0 103620
10:00−21nne2297100 0.0 1032107
13:00−18n3294100 0.0 1028198
16:00−17n2296100 0.0 1025141
19:00−20nnw1197100 0.0 102520
22:00−21nnw129598 0.0 102420
2 march, tue
tue201:00−22n119693 0.0 102420
04:00−22nnw129897 0.0 102220
07:00−21nnw229899 0.0 102223
10:00−16nne2298100 0.4 1021102
13:00−14nne2298100 0.5 1020146
16:00−13nw2298100 0.1 1018120
19:00−16e1198100 0.1 102120
22:00−14ne1193100 0.0 102020
3 march, wed
wed301:00−14nne1191100 0.0 101821
04:00−14nw2299100 0.0 101720
07:00−16sw1198100 0.0 101720
10:00−11e1185100 0.0 101732
13:00−9nne228799 0.0 1017194
16:00−8ene1190100 0.0 1018108
19:00−11ssw0092100 0.0 102121
22:00−12nne1189100 0.0 102321
4 march, thu
thu401:00−14ese119099 0.0 102521
04:00−14ne018895 0.0 102620
07:00−15ene009397 0.0 102920
10:00−11nne1194100 0.3 1029107
13:00−9ne0090100 0.6 1029213
16:00−8e119275 0.1 102891
19:00−13se128943 0.1 103121
22:00−15ene01800 0.0 103321
5 march, fri
fri501:00−17ne01830 0.0 103320
04:00−18nne118532 0.0 103220
07:00−19n118631 0.0 103320
10:00−15ne228787 0.0 103064
13:00−13nne229193 0.0 1027152
16:00−11ne229179 0.0 1024108
19:00−12nw118976 0.0 102621
22:00−13wnw3592100 0.0 1028115